owner,sensor,date,latitude,longitude,vertical_datum,sea_water_practical_salinity,qcFlag 
COMPS,ioos:station:USF.COMPS:ANC:1,2012-10-01T00:00:00Z,28.1930,-82.7890,1.0,22.384,1111122 
COMPS,ioos:station:USF.COMPS:ANC:1,2012-10-01T00:06:00Z,28.1930,-82.7890,1.0,22.269,1111122 
COMPS,ioos:station:USF.COMPS:ANC:1,2012-10-01T00:12:00Z,28.1930,-82.7890,1.0,22.166,1111122 
COMPS,ioos:station:USF.COMPS:ANC:1,2012-10-01T00:18:00Z,28.1930,-82.7890,1.0,22.111,1111122 
COMPS,ioos:station:USF.COMPS:ANC:1,2012-10-01T00:24:00Z,28.1930,-82.7890,1.0,22.056,1111122 
COMPS,ioos:station:USF.COMPS:ANC:1,2012-10-01T00:30:00Z,28.1930,-82.7890,1.0,22.011,1111122 
COMPS,ioos:station:USF.COMPS:ANC:1,2012-10-01T00:36:00Z,28.1930,-82.7890,1.0,22.015,1111122 
COMPS,ioos:station:USF.COMPS:ANC:1,2012-10-01T00:42:00Z,28.1930,-82.7890,1.0,22.044,1111122 
COMPS,ioos:station:USF.COMPS:ANC:1,2012-10-01T00:48:00Z,28.1930,-82.7890,1.0,22.123,1111122 
COMPS,ioos:station:USF.COMPS:ANC:1,2012-10-01T00:54:00Z,28.1930,-82.7890,1.0,22.253,1111122 
COMPS,ioos:station:USF.COMPS:ANC:1,2012-10-01T01:00:00Z,28.1930,-82.7890,1.0,22.468,1111122 
COMPS,ioos:station:USF.COMPS:ANC:1,2012-10-01T01:06:00Z,28.1930,-82.7890,1.0,22.67,1111122 
COMPS,ioos:station:USF.COMPS:ANC:1,2012-10-01T01:12:00Z,28.1930,-82.7890,1.0,22.974,1111122 
COMPS,ioos:station:USF.COMPS:ANC:1,2012-10-01T01:18:00Z,28.1930,-82.7890,1.0,23.295,1111122 
COMPS,ioos:station:USF.COMPS:ANC:1,2012-10-01T01:24:00Z,28.1930,-82.7890,1.0,23.593,1111122 
COMPS,ioos:station:USF.COMPS:ANC:1,2012-10-01T01:30:00Z,28.1930,-82.7890,1.0,23.86,1111122 
COMPS,ioos:station:USF.COMPS:ANC:1,2012-10-01T01:36:00Z,28.1930,-82.7890,1.0,24.268,1111122 
COMPS,ioos:station:USF.COMPS:ANC:1,2012-10-01T01:42:00Z,28.1930,-82.7890,1.0,24.598,1111122 
COMPS,ioos:station:USF.COMPS:ANC:1,2012-10-01T01:48:00Z,28.1930,-82.7890,1.0,24.848,1111122 
COMPS,ioos:station:USF.COMPS:ANC:1,2012-10-01T01:54:00Z,28.1930,-82.7890,1.0,25.117,1111122 
COMPS,ioos:station:USF.COMPS:ANC:1,2012-10-01T02:00:00Z,28.1930,-82.7890,1.0,25.345,1111122 
COMPS,ioos:station:USF.COMPS:ANC:1,2012-10-01T02:06:00Z,28.1930,-82.7890,1.0,25.578,1111122 
COMPS,ioos:station:USF.COMPS:ANC:1,2012-10-01T02:12:00Z,28.1930,-82.7890,1.0,25.764,1111122 
COMPS,ioos:station:USF.COMPS:ANC:1,2012-10-01T02:18:00Z,28.1930,-82.7890,1.0,25.931,1111122 
COMPS,ioos:station:USF.COMPS:ANC:1,2012-10-01T02:24:00Z,28.1930,-82.7890,1.0,26.05,1111122 
COMPS,ioos:station:USF.COMPS:ANC:1,2012-10-01T02:30:00Z,28.1930,-82.7890,1.0,26.103,1111122 
COMPS,ioos:station:USF.COMPS:ANC:1,2012-10-01T02:36:00Z,28.1930,-82.7890,1.0,26.148,1111122 
COMPS,ioos:station:USF.COMPS:ANC:1,2012-10-01T02:42:00Z,28.1930,-82.7890,1.0,26.18,1111122 
COMPS,ioos:station:USF.COMPS:ANC:1,2012-10-01T02:48:00Z,28.1930,-82.7890,1.0,26.226,1111122 
COMPS,ioos:station:USF.COMPS:ANC:1,2012-10-01T02:54:00Z,28.1930,-82.7890,1.0,26.253,1111122 
COMPS,ioos:station:USF.COMPS:ANC:1,2012-10-01T03:00:00Z,28.1930,-82.7890,1.0,26.238,1111122 
COMPS,ioos:station:USF.COMPS:ANC:1,2012-10-01T03:06:00Z,28.1930,-82.7890,1.0,26.266,1111122 
COMPS,ioos:station:USF.COMPS:ANC:1,2012-10-01T03:12:00Z,28.1930,-82.7890,1.0,26.276,1111122 
COMPS,ioos:station:USF.COMPS:ANC:1,2012-10-01T03:18:00Z,28.1930,-82.7890,1.0,26.295,1111122 
COMPS,ioos:station:USF.COMPS:ANC:1,2012-10-01T03:24:00Z,28.1930,-82.7890,1.0,26.196,1111122 
COMPS,ioos:station:USF.COMPS:ANC:1,2012-10-01T03:30:00Z,28.1930,-82.7890,1.0,26.28,1111122 
COMPS,ioos:station:USF.COMPS:ANC:1,2012-10-01T03:36:00Z,28.1930,-82.7890,1.0,26.327,1111122 
COMPS,ioos:station:USF.COMPS:ANC:1,2012-10-01T03:42:00Z,28.1930,-82.7890,1.0,26.368,1111122 
COMPS,ioos:station:USF.COMPS:ANC:1,2012-10-01T03:48:00Z,28.1930,-82.7890,1.0,26.367,1111122 
COMPS,ioos:station:USF.COMPS:ANC:1,2012-10-01T03:54:00Z,28.1930,-82.7890,1.0,26.396,1111122 
COMPS,ioos:station:USF.COMPS:ANC:1,2012-10-01T04:00:00Z,28.1930,-82.7890,1.0,26.403,1111122 
COMPS,ioos:station:USF.COMPS:ANC:1,2012-10-01T04:06:00Z,28.1930,-82.7890,1.0,26.42,1111122 
COMPS,ioos:station:USF.COMPS:ANC:1,2012-10-01T04:12:00Z,28.1930,-82.7890,1.0,26.419,1111122 
COMPS,ioos:station:USF.COMPS:ANC:1,2012-10-01T04:18:00Z,28.1930,-82.7890,1.0,26.51,1111122 
COMPS,ioos:station:USF.COMPS:ANC:1,2012-10-01T04:24:00Z,28.1930,-82.7890,1.0,26.497,1111122 
COMPS,ioos:station:USF.COMPS:ANC:1,2012-10-01T04:30:00Z,28.1930,-82.7890,1.0,26.494,1111122 
COMPS,ioos:station:USF.COMPS:ANC:1,2012-10-01T04:36:00Z,28.1930,-82.7890,1.0,26.609,1111122 
COMPS,ioos:station:USF.COMPS:ANC:1,2012-10-01T04:42:00Z,28.1930,-82.7890,1.0,26.628,1111122 
COMPS,ioos:station:USF.COMPS:ANC:1,2012-10-01T04:48:00Z,28.1930,-82.7890,1.0,26.647,1111122 
COMPS,ioos:station:USF.COMPS:ANC:1,2012-10-01T04:54:00Z,28.1930,-82.7890,1.0,26.654,1111122 
COMPS,ioos:station:USF.COMPS:ANC:1,2012-10-01T05:00:00Z,28.1930,-82.7890,1.0,26.659,1111122 
COMPS,ioos:station:USF.COMPS:ANC:1,2012-10-01T05:06:00Z,28.1930,-82.7890,1.0,26.699,1111122 
COMPS,ioos:station:USF.COMPS:ANC:1,2012-10-01T05:12:00Z,28.1930,-82.7890,1.0,26.693,1111122 
COMPS,ioos:station:USF.COMPS:ANC:1,2012-10-01T05:18:00Z,28.1930,-82.7890,1.0,26.686,1111122 
COMPS,ioos:station:USF.COMPS:ANC:1,2012-10-01T05:24:00Z,28.1930,-82.7890,1.0,26.902,1111122 
COMPS,ioos:station:USF.COMPS:ANC:1,2012-10-01T05:30:00Z,28.1930,-82.7890,1.0,26.875,1111122 
COMPS,ioos:station:USF.COMPS:ANC:1,2012-10-01T05:36:00Z,28.1930,-82.7890,1.0,26.853,1111122 
COMPS,ioos:station:USF.COMPS:ANC:1,2012-10-01T05:42:00Z,28.1930,-82.7890,1.0,26.839,1111122 
COMPS,ioos:station:USF.COMPS:ANC:1,2012-10-01T05:48:00Z,28.1930,-82.7890,1.0,26.858,1111122 
COMPS,ioos:station:USF.COMPS:ANC:1,2012-10-01T05:54:00Z,28.1930,-82.7890,1.0,26.918,1111122 
COMPS,ioos:station:USF.COMPS:ANC:1,2012-10-01T06:00:00Z,28.1930,-82.7890,1.0,26.973,1111122 
COMPS,ioos:station:USF.COMPS:ANC:1,2012-10-01T06:06:00Z,28.1930,-82.7890,1.0,26.994,1111122 
COMPS,ioos:station:USF.COMPS:ANC:1,2012-10-01T06:12:00Z,28.1930,-82.7890,1.0,27.001,1111122 
COMPS,ioos:station:USF.COMPS:ANC:1,2012-10-01T06:18:00Z,28.1930,-82.7890,1.0,26.996,1111122 
COMPS,ioos:station:USF.COMPS:ANC:1,2012-10-01T06:24:00Z,28.1930,-82.7890,1.0,27.009,1111122 
COMPS,ioos:station:USF.COMPS:ANC:1,2012-10-01T06:30:00Z,28.1930,-82.7890,1.0,27.044,1111122 
COMPS,ioos:station:USF.COMPS:ANC:1,2012-10-01T06:36:00Z,28.1930,-82.7890,1.0,27.059,1111122 
COMPS,ioos:station:USF.COMPS:ANC:1,2012-10-01T06:42:00Z,28.1930,-82.7890,1.0,27.065,1111122 
COMPS,ioos:station:USF.COMPS:ANC:1,2012-10-01T06:48:00Z,28.1930,-82.7890,1.0,27.087,1111122 
COMPS,ioos:station:USF.COMPS:ANC:1,2012-10-01T06:54:00Z,28.1930,-82.7890,0.0,27.111,1111122 
COMPS,ioos:station:USF.COMPS:ANC:1,2012-10-01T07:00:00Z,28.1930,-82.7890,1.0,27.148,1111122 
COMPS,ioos:station:USF.COMPS:ANC:1,2012-10-01T07:06:00Z,28.1930,-82.7890,1.0,27.163,1111122 
COMPS,ioos:station:USF.COMPS:ANC:1,2012-10-01T07:12:00Z,28.1930,-82.7890,1.0,27.137,1111122 
COMPS,ioos:station:USF.COMPS:ANC:1,2012-10-01T07:18:00Z,28.1930,-82.7890,1.0,27.169,1111122 
COMPS,ioos:station:USF.COMPS:ANC:1,2012-10-01T07:24:00Z,28.1930,-82.7890,1.0,27.193,1111122 
COMPS,ioos:station:USF.COMPS:ANC:1,2012-10-01T07:30:00Z,28.1930,-82.7890,1.0,27.212,1111122 
COMPS,ioos:station:USF.COMPS:ANC:1,2012-10-01T07:36:00Z,28.1930,-82.7890,1.0,27.218,1111122 
COMPS,ioos:station:USF.COMPS:ANC:1,2012-10-01T07:42:00Z,28.1930,-82.7890,1.0,27.231,1111122 
COMPS,ioos:station:USF.COMPS:ANC:1,2012-10-01T07:48:00Z,28.1930,-82.7890,1.0,27.238,1111122 
COMPS,ioos:station:USF.COMPS:ANC:1,2012-10-01T07:54:00Z,28.1930,-82.7890,1.0,27.261,1111122 
COMPS,ioos:station:USF.COMPS:ANC:1,2012-10-01T08:00:00Z,28.1930,-82.7890,1.0,27.208,1111122 
COMPS,ioos:station:USF.COMPS:ANC:1,2012-10-01T08:06:00Z,28.1930,-82.7890,1.0,27.226,1111122 
COMPS,ioos:station:USF.COMPS:ANC:1,2012-10-01T08:12:00Z,28.1930,-82.7890,1.0,27.2,1111122 
COMPS,ioos:station:USF.COMPS:ANC:1,2012-10-01T08:18:00Z,28.1930,-82.7890,1.0,27.21,1111122 
COMPS,ioos:station:USF.COMPS:ANC:1,2012-10-01T08:24:00Z,28.1930,-82.7890,1.0,27.214,1111122 
COMPS,ioos:station:USF.COMPS:ANC:1,2012-10-01T08:30:00Z,28.1930,-82.7890,1.0,27.211,1111122 
COMPS,ioos:station:USF.COMPS:ANC:1,2012-10-01T08:36:00Z,28.1930,-82.7890,1.0,27.209,1111122 
COMPS,ioos:station:USF.COMPS:ANC:1,2012-10-01T08:42:00Z,28.1930,-82.7890,1.0,27.213,1111122 
COMPS,ioos:station:USF.COMPS:ANC:1,2012-10-01T08:48:00Z,28.1930,-82.7890,1.0,27.206,1111122 
COMPS,ioos:station:USF.COMPS:ANC:1,2012-10-01T08:54:00Z,28.1930,-82.7890,1.0,27.197,1111122 
COMPS,ioos:station:USF.COMPS:ANC:1,2012-10-01T09:00:00Z,28.1930,-82.7890,1.0,27.19,1111122 
COMPS,ioos:station:USF.COMPS:ANC:1,2012-10-01T09:06:00Z,28.1930,-82.7890,1.0,27.193,1111122 
COMPS,ioos:station:USF.COMPS:ANC:1,2012-10-01T09:12:00Z,28.1930,-82.7890,1.0,27.191,1111122 
COMPS,ioos:station:USF.COMPS:ANC:1,2012-10-01T09:18:00Z,28.1930,-82.7890,1.0,27.171,1111122 
COMPS,ioos:station:USF.COMPS:ANC:1,2012-10-01T09:24:00Z,28.1930,-82.7890,1.0,27.169,1111122 
COMPS,ioos:station:USF.COMPS:ANC:1,2012-10-01T09:30:00Z,28.1930,-82.7890,1.0,27.168,1111122 
COMPS,ioos:station:USF.COMPS:ANC:1,2012-10-01T09:36:00Z,28.1930,-82.7890,1.0,27.161,1111122 
COMPS,ioos:station:USF.COMPS:ANC:1,2012-10-01T09:42:00Z,28.1930,-82.7890,1.0,27.154,1111122 
COMPS,ioos:station:USF.COMPS:ANC:1,2012-10-01T09:48:00Z,28.1930,-82.7890,1.0,27.132,1111122 
COMPS,ioos:station:USF.COMPS:ANC:1,2012-10-01T09:54:00Z,28.1930,-82.7890,1.0,27.118,1111122 
COMPS,ioos:station:USF.COMPS:ANC:1,2012-10-01T10:00:00Z,28.1930,-82.7890,1.0,27.109,1111122 
COMPS,ioos:station:USF.COMPS:ANC:1,2012-10-01T10:06:00Z,28.1930,-82.7890,1.0,27.081,1111122 
COMPS,ioos:station:USF.COMPS:ANC:1,2012-10-01T10:12:00Z,28.1930,-82.7890,1.0,27.066,1111122 
COMPS,ioos:station:USF.COMPS:ANC:1,2012-10-01T10:18:00Z,28.1930,-82.7890,1.0,27.043,1111122 
COMPS,ioos:station:USF.COMPS:ANC:1,2012-10-01T10:24:00Z,28.1930,-82.7890,1.0,27.013,1111122 
COMPS,ioos:station:USF.COMPS:ANC:1,2012-10-01T10:30:00Z,28.1930,-82.7890,1.0,26.978,1111122 
COMPS,ioos:station:USF.COMPS:ANC:1,2012-10-01T10:36:00Z,28.1930,-82.7890,1.0,26.964,1111122 
COMPS,ioos:station:USF.COMPS:ANC:1,2012-10-01T10:42:00Z,28.1930,-82.7890,1.0,26.936,1111122 
COMPS,ioos:station:USF.COMPS:ANC:1,2012-10-01T10:48:00Z,28.1930,-82.7890,1.0,26.899,1111122 
COMPS,ioos:station:USF.COMPS:ANC:1,2012-10-01T10:54:00Z,28.1930,-82.7890,1.0,26.821,1111122 
COMPS,ioos:station:USF.COMPS:ANC:1,2012-10-01T11:00:00Z,28.1930,-82.7890,1.0,26.78,1111122 
COMPS,ioos:station:USF.COMPS:ANC:1,2012-10-01T11:06:00Z,28.1930,-82.7890,1.0,26.703,1111122 
COMPS,ioos:station:USF.COMPS:ANC:1,2012-10-01T11:12:00Z,28.1930,-82.7890,1.0,26.627,1111122 
COMPS,ioos:station:USF.COMPS:ANC:1,2012-10-01T11:18:00Z,28.1930,-82.7890,1.0,26.511,1111122 
COMPS,ioos:station:USF.COMPS:ANC:1,2012-10-01T11:24:00Z,28.1930,-82.7890,1.0,26.3,1111122 
COMPS,ioos:station:USF.COMPS:ANC:1,2012-10-01T11:30:00Z,28.1930,-82.7890,1.0,26.138,1111122 
COMPS,ioos:station:USF.COMPS:ANC:1,2012-10-01T11:36:00Z,28.1930,-82.7890,1.0,25.95,1111122 
COMPS,ioos:station:USF.COMPS:ANC:1,2012-10-01T11:42:00Z,28.1930,-82.7890,1.0,25.752,1111122 
COMPS,ioos:station:USF.COMPS:ANC:1,2012-10-01T11:48:00Z,28.1930,-82.7890,1.0,25.611,1111122 
COMPS,ioos:station:USF.COMPS:ANC:1,2012-10-01T11:54:00Z,28.1930,-82.7890,1.0,25.436,1111122 
COMPS,ioos:station:USF.COMPS:ANC:1,2012-10-01T12:00:00Z,28.1930,-82.7890,1.0,25.314,1111122 
COMPS,ioos:station:USF.COMPS:ANC:1,2012-10-01T12:06:00Z,28.1930,-82.7890,1.0,25.146,1111122 
COMPS,ioos:station:USF.COMPS:ANC:1,2012-10-01T12:12:00Z,28.1930,-82.7890,1.0,24.985,1111122 
COMPS,ioos:station:USF.COMPS:ANC:1,2012-10-01T12:18:00Z,28.1930,-82.7890,1.0,24.765,1111122 
COMPS,ioos:station:USF.COMPS:ANC:1,2012-10-01T12:24:00Z,28.1930,-82.7890,1.0,24.505,1111122 
COMPS,ioos:station:USF.COMPS:ANC:1,2012-10-01T12:30:00Z,28.1930,-82.7890,1.0,24.241,1111122 
COMPS,ioos:station:USF.COMPS:ANC:1,2012-10-01T12:36:00Z,28.1930,-82.7890,1.0,24.044,1111122 
COMPS,ioos:station:USF.COMPS:ANC:1,2012-10-01T12:42:00Z,28.1930,-82.7890,1.0,23.967,1111122 
COMPS,ioos:station:USF.COMPS:ANC:1,2012-10-01T12:48:00Z,28.1930,-82.7890,1.0,23.712,1111122 
COMPS,ioos:station:USF.COMPS:ANC:1,2012-10-01T12:54:00Z,28.1930,-82.7890,1.0,23.377,1111122 
COMPS,ioos:station:USF.COMPS:ANC:1,2012-10-01T13:00:00Z,28.1930,-82.7890,1.0,22.979,1111122 
COMPS,ioos:station:USF.COMPS:ANC:1,2012-10-01T13:06:00Z,28.1930,-82.7890,1.0,22.938,1111122 
COMPS,ioos:station:USF.COMPS:ANC:1,2012-10-01T13:12:00Z,28.1930,-82.7890,1.0,22.931,1111122 
COMPS,ioos:station:USF.COMPS:ANC:1,2012-10-01T13:18:00Z,28.1930,-82.7890,1.0,22.814,1111122 
COMPS,ioos:station:USF.COMPS:ANC:1,2012-10-01T13:24:00Z,28.1930,-82.7890,1.0,22.618,1111122 
COMPS,ioos:station:USF.COMPS:ANC:1,2012-10-01T13:30:00Z,28.1930,-82.7890,1.0,22.416,1111122 
COMPS,ioos:station:USF.COMPS:ANC:1,2012-10-01T13:36:00Z,28.1930,-82.7890,1.0,22.157,1111122 
COMPS,ioos:station:USF.COMPS:ANC:1,2012-10-01T13:42:00Z,28.1930,-82.7890,1.0,21.948,1111122 
COMPS,ioos:station:USF.COMPS:ANC:1,2012-10-01T13:48:00Z,28.1930,-82.7890,1.0,21.765,1111122 
COMPS,ioos:station:USF.COMPS:ANC:1,2012-10-01T13:54:00Z,28.1930,-82.7890,1.0,21.604,1111122 
COMPS,ioos:station:USF.COMPS:ANC:1,2012-10-01T14:00:00Z,28.1930,-82.7890,1.0,21.443,1111122 
COMPS,ioos:station:USF.COMPS:ANC:1,2012-10-01T14:06:00Z,28.1930,-82.7890,1.0,21.31,1111122 
COMPS,ioos:station:USF.COMPS:ANC:1,2012-10-01T14:12:00Z,28.1930,-82.7890,1.0,21.226,1111122 
COMPS,ioos:station:USF.COMPS:ANC:1,2012-10-01T14:18:00Z,28.1930,-82.7890,1.0,21.114,1111122 
COMPS,ioos:station:USF.COMPS:ANC:1,2012-10-01T14:24:00Z,28.1930,-82.7890,1.0,21.02,1111122 
COMPS,ioos:station:USF.COMPS:ANC:1,2012-10-01T14:30:00Z,28.1930,-82.7890,1.0,21.023,1111122 
COMPS,ioos:station:USF.COMPS:ANC:1,2012-10-01T14:36:00Z,28.1930,-82.7890,1.0,21.048,1111122 
COMPS,ioos:station:USF.COMPS:ANC:1,2012-10-01T14:42:00Z,28.1930,-82.7890,1.0,21.14,1111122 
COMPS,ioos:station:USF.COMPS:ANC:1,2012-10-01T14:48:00Z,28.1930,-82.7890,1.0,21.187,1111122 
COMPS,ioos:station:USF.COMPS:ANC:1,2012-10-01T14:54:00Z,28.1930,-82.7890,1.0,21.37,1111122 
COMPS,ioos:station:USF.COMPS:ANC:1,2012-10-01T15:00:00Z,28.1930,-82.7890,1.0,21.776,1111122 
COMPS,ioos:station:USF.COMPS:ANC:1,2012-10-01T15:06:00Z,28.1930,-82.7890,1.0,22.227,1111122 
COMPS,ioos:station:USF.COMPS:ANC:1,2012-10-01T15:12:00Z,28.1930,-82.7890,1.0,22.402,1111122 
COMPS,ioos:station:USF.COMPS:ANC:1,2012-10-01T15:18:00Z,28.1930,-82.7890,1.0,22.661,1111122 
COMPS,ioos:station:USF.COMPS:ANC:1,2012-10-01T15:24:00Z,28.1930,-82.7890,1.0,22.75,1111122 
COMPS,ioos:station:USF.COMPS:ANC:1,2012-10-01T15:30:00Z,28.1930,-82.7890,1.0,22.901,1111122 
COMPS,ioos:station:USF.COMPS:ANC:1,2012-10-01T15:36:00Z,28.1930,-82.7890,1.0,23.177,1111122 
COMPS,ioos:station:USF.COMPS:ANC:1,2012-10-01T15:42:00Z,28.1930,-82.7890,1.0,23.514,1111122 
COMPS,ioos:station:USF.COMPS:ANC:1,2012-10-01T15:48:00Z,28.1930,-82.7890,1.0,23.789,1111122 
COMPS,ioos:station:USF.COMPS:ANC:1,2012-10-01T15:54:00Z,28.1930,-82.7890,1.0,24.036,1111122 
COMPS,ioos:station:USF.COMPS:ANC:1,2012-10-01T16:00:00Z,28.1930,-82.7890,1.0,24.342,1111122 
COMPS,ioos:station:USF.COMPS:ANC:1,2012-10-01T16:06:00Z,28.1930,-82.7890,1.0,24.566,1111122 
COMPS,ioos:station:USF.COMPS:ANC:1,2012-10-01T16:12:00Z,28.1930,-82.7890,1.0,24.797,1111122 
COMPS,ioos:station:USF.COMPS:ANC:1,2012-10-01T16:18:00Z,28.1930,-82.7890,1.0,24.934,1111122 
COMPS,ioos:station:USF.COMPS:ANC:1,2012-10-01T16:24:00Z,28.1930,-82.7890,1.0,25.113,1111122 
COMPS,ioos:station:USF.COMPS:ANC:1,2012-10-01T16:30:00Z,28.1930,-82.7890,1.0,25.233,1111122 
COMPS,ioos:station:USF.COMPS:ANC:1,2012-10-01T16:36:00Z,28.1930,-82.7890,1.0,25.373,1111122 
COMPS,ioos:station:USF.COMPS:ANC:1,2012-10-01T16:42:00Z,28.1930,-82.7890,1.0,25.482,1111122 
COMPS,ioos:station:USF.COMPS:ANC:1,2012-10-01T16:48:00Z,28.1930,-82.7890,1.0,25.604,1111122 
COMPS,ioos:station:USF.COMPS:ANC:1,2012-10-01T16:54:00Z,28.1930,-82.7890,1.0,25.701,1111122 
COMPS,ioos:station:USF.COMPS:ANC:1,2012-10-01T17:00:00Z,28.1930,-82.7890,1.0,25.777,1111122 
COMPS,ioos:station:USF.COMPS:ANC:1,2012-10-01T17:06:00Z,28.1930,-82.7890,1.0,25.872,1111122 
COMPS,ioos:station:USF.COMPS:ANC:1,2012-10-01T17:12:00Z,28.1930,-82.7890,1.0,25.977,1111122 
COMPS,ioos:station:USF.COMPS:ANC:1,2012-10-01T17:18:00Z,28.1930,-82.7890,1.0,26.056,1111122 
COMPS,ioos:station:USF.COMPS:ANC:1,2012-10-01T17:24:00Z,28.1930,-82.7890,1.0,26.134,1111122 
COMPS,ioos:station:USF.COMPS:ANC:1,2012-10-01T17:30:00Z,28.1930,-82.7890,1.0,26.219,1111122 
COMPS,ioos:station:USF.COMPS:ANC:1,2012-10-01T17:36:00Z,28.1930,-82.7890,1.0,26.269,1111122 
COMPS,ioos:station:USF.COMPS:ANC:1,2012-10-01T17:42:00Z,28.1930,-82.7890,1.0,26.318,1111122 
COMPS,ioos:station:USF.COMPS:ANC:1,2012-10-01T17:48:00Z,28.1930,-82.7890,1.0,26.371,1111122 
COMPS,ioos:station:USF.COMPS:ANC:1,2012-10-01T17:54:00Z,28.1930,-82.7890,0.0,26.434,1111122 
COMPS,ioos:station:USF.COMPS:ANC:1,2012-10-01T18:00:00Z,28.1930,-82.7890,1.0,26.465,1111122 
COMPS,ioos:station:USF.COMPS:ANC:1,2012-10-01T18:06:00Z,28.1930,-82.7890,1.0,26.475,1111122 
COMPS,ioos:station:USF.COMPS:ANC:1,2012-10-01T18:12:00Z,28.1930,-82.7890,1.0,26.633,1111122 
COMPS,ioos:station:USF.COMPS:ANC:1,2012-10-01T18:18:00Z,28.1930,-82.7890,1.0,26.651,1111122 
COMPS,ioos:station:USF.COMPS:ANC:1,2012-10-01T18:24:00Z,28.1930,-82.7890,1.0,26.628,1111122 
COMPS,ioos:station:USF.COMPS:ANC:1,2012-10-01T18:30:00Z,28.1930,-82.7890,1.0,26.64,1111122 
COMPS,ioos:station:USF.COMPS:ANC:1,2012-10-01T18:36:00Z,28.1930,-82.7890,1.0,26.669,1111122 
COMPS,ioos:station:USF.COMPS:ANC:1,2012-10-01T18:42:00Z,28.1930,-82.7890,1.0,26.68,1111122 
COMPS,ioos:station:USF.COMPS:ANC:1,2012-10-01T18:48:00Z,28.1930,-82.7890,1.0,26.733,1111122 
COMPS,ioos:station:USF.COMPS:ANC:1,2012-10-01T18:54:00Z,28.1930,-82.7890,1.0,26.766,1111122 
COMPS,ioos:station:USF.COMPS:ANC:1,2012-10-01T19:00:00Z,28.1930,-82.7890,1.0,26.761,1111122 
COMPS,ioos:station:USF.COMPS:ANC:1,2012-10-01T19:06:00Z,28.1930,-82.7890,1.0,26.818,1111122 
COMPS,ioos:station:USF.COMPS:ANC:1,2012-10-01T19:12:00Z,28.1930,-82.7890,1.0,26.847,1111122 
COMPS,ioos:station:USF.COMPS:ANC:1,2012-10-01T19:18:00Z,28.1930,-82.7890,1.0,26.882,1111122 
COMPS,ioos:station:USF.COMPS:ANC:1,2012-10-01T19:24:00Z,28.1930,-82.7890,1.0,26.916,1111122 
COMPS,ioos:station:USF.COMPS:ANC:1,2012-10-01T19:30:00Z,28.1930,-82.7890,1.0,26.965,1111122 
COMPS,ioos:station:USF.COMPS:ANC:1,2012-10-01T19:36:00Z,28.1930,-82.7890,1.0,26.994,1111122 
COMPS,ioos:station:USF.COMPS:ANC:1,2012-10-01T19:42:00Z,28.1930,-82.7890,1.0,27.015,1111122 
COMPS,ioos:station:USF.COMPS:ANC:1,2012-10-01T19:48:00Z,28.1930,-82.7890,1.0,27.032,1111122 
COMPS,ioos:station:USF.COMPS:ANC:1,2012-10-01T19:54:00Z,28.1930,-82.7890,1.0,27.08,1111122 
COMPS,ioos:station:USF.COMPS:ANC:1,2012-10-01T20:00:00Z,28.1930,-82.7890,1.0,27.093,1111122 
COMPS,ioos:station:USF.COMPS:ANC:1,2012-10-01T20:06:00Z,28.1930,-82.7890,1.0,27.13,1111122 
COMPS,ioos:station:USF.COMPS:ANC:1,2012-10-01T20:12:00Z,28.1930,-82.7890,1.0,27.15,1111122 
COMPS,ioos:station:USF.COMPS:ANC:1,2012-10-01T20:18:00Z,28.1930,-82.7890,1.0,27.165,1111122 
COMPS,ioos:station:USF.COMPS:ANC:1,2012-10-01T20:24:00Z,28.1930,-82.7890,1.0,27.174,1111122 
COMPS,ioos:station:USF.COMPS:ANC:1,2012-10-01T20:30:00Z,28.1930,-82.7890,1.0,27.17,1111122 
COMPS,ioos:station:USF.COMPS:ANC:1,2012-10-01T20:36:00Z,28.1930,-82.7890,1.0,27.17,1111122 
COMPS,ioos:station:USF.COMPS:ANC:1,2012-10-01T20:42:00Z,28.1930,-82.7890,1.0,27.163,1111122 
COMPS,ioos:station:USF.COMPS:ANC:1,2012-10-01T20:48:00Z,28.1930,-82.7890,1.0,27.062,1111122 
COMPS,ioos:station:USF.COMPS:ANC:1,2012-10-01T20:54:00Z,28.1930,-82.7890,1.0,27.045,1111122 
COMPS,ioos:station:USF.COMPS:ANC:1,2012-10-01T21:00:00Z,28.1930,-82.7890,1.0,27.057,1111122 
COMPS,ioos:station:USF.COMPS:ANC:1,2012-10-01T21:06:00Z,28.1930,-82.7890,1.0,27.091,1111122 
COMPS,ioos:station:USF.COMPS:ANC:1,2012-10-01T21:12:00Z,28.1930,-82.7890,1.0,27.057,1111122 
COMPS,ioos:station:USF.COMPS:ANC:1,2012-10-01T21:18:00Z,28.1930,-82.7890,1.0,27.061,1111122 
COMPS,ioos:station:USF.COMPS:ANC:1,2012-10-01T21:24:00Z,28.1930,-82.7890,1.0,27.051,1111122 
COMPS,ioos:station:USF.COMPS:ANC:1,2012-10-01T21:30:00Z,28.1930,-82.7890,1.0,27.03,1111122 
COMPS,ioos:station:USF.COMPS:ANC:1,2012-10-01T21:36:00Z,28.1930,-82.7890,1.0,27.01,1111122 
COMPS,ioos:station:USF.COMPS:ANC:1,2012-10-01T21:42:00Z,28.1930,-82.7890,1.0,26.982,1111122 
COMPS,ioos:station:USF.COMPS:ANC:1,2012-10-01T21:48:00Z,28.1930,-82.7890,1.0,26.986,1111122 
COMPS,ioos:station:USF.COMPS:ANC:1,2012-10-01T21:54:00Z,28.1930,-82.7890,1.0,26.973,1111122 
COMPS,ioos:station:USF.COMPS:ANC:1,2012-10-01T22:00:00Z,28.1930,-82.7890,1.0,26.919,1111122 
COMPS,ioos:station:USF.COMPS:ANC:1,2012-10-01T22:06:00Z,28.1930,-82.7890,1.0,26.877,1111122 
COMPS,ioos:station:USF.COMPS:ANC:1,2012-10-01T22:12:00Z,28.1930,-82.7890,1.0,26.821,1111122 
COMPS,ioos:station:USF.COMPS:ANC:1,2012-10-01T22:18:00Z,28.1930,-82.7890,1.0,26.758,1111122 
COMPS,ioos:station:USF.COMPS:ANC:1,2012-10-01T22:24:00Z,28.1930,-82.7890,1.0,26.677,1111122 
COMPS,ioos:station:USF.COMPS:ANC:1,2012-10-01T22:30:00Z,28.1930,-82.7890,1.0,26.552,1111122 
COMPS,ioos:station:USF.COMPS:ANC:1,2012-10-01T22:36:00Z,28.1930,-82.7890,1.0,26.467,1111122 
COMPS,ioos:station:USF.COMPS:ANC:1,2012-10-01T22:42:00Z,28.1930,-82.7890,1.0,26.333,1111122 
COMPS,ioos:station:USF.COMPS:ANC:1,2012-10-01T22:48:00Z,28.1930,-82.7890,1.0,26.231,1111122 
COMPS,ioos:station:USF.COMPS:ANC:1,2012-10-01T22:54:00Z,28.1930,-82.7890,1.0,26.142,1111122 
COMPS,ioos:station:USF.COMPS:ANC:1,2012-10-02T00:00:00Z,28.1930,-82.7890,1.0,24.937,1111122 
COMPS,ioos:station:USF.COMPS:ANC:1,2012-10-02T00:06:00Z,28.1930,-82.7890,1.0,24.824,1111122 
COMPS,ioos:station:USF.COMPS:ANC:1,2012-10-02T00:12:00Z,28.1930,-82.7890,1.0,24.697,1111122 
COMPS,ioos:station:USF.COMPS:ANC:1,2012-10-02T00:18:00Z,28.1930,-82.7890,1.0,24.557,1111122 
COMPS,ioos:station:USF.COMPS:ANC:1,2012-10-02T00:24:00Z,28.1930,-82.7890,1.0,24.583,1111122 
COMPS,ioos:station:USF.COMPS:ANC:1,2012-10-02T00:30:00Z,28.1930,-82.7890,1.0,24.482,1111122 
COMPS,ioos:station:USF.COMPS:ANC:1,2012-10-02T00:36:00Z,28.1930,-82.7890,1.0,24.397,1111122 
COMPS,ioos:station:USF.COMPS:ANC:1,2012-10-02T00:42:00Z,28.1930,-82.7890,1.0,24.357,1111122 
COMPS,ioos:station:USF.COMPS:ANC:1,2012-10-02T00:48:00Z,28.1930,-82.7890,1.0,24.316,1111122 
COMPS,ioos:station:USF.COMPS:ANC:1,2012-10-02T00:54:00Z,28.1930,-82.7890,0.0,24.289,1111122 
COMPS,ioos:station:USF.COMPS:ANC:1,2012-10-02T01:00:00Z,28.1930,-82.7890,1.0,24.267,1111122 
COMPS,ioos:station:USF.COMPS:ANC:1,2012-10-02T01:06:00Z,28.1930,-82.7890,1.0,24.251,1111122 
COMPS,ioos:station:USF.COMPS:ANC:1,2012-10-02T01:12:00Z,28.1930,-82.7890,1.0,24.277,1111122 
COMPS,ioos:station:USF.COMPS:ANC:1,2012-10-02T01:18:00Z,28.1930,-82.7890,1.0,24.267,1111122 
COMPS,ioos:station:USF.COMPS:ANC:1,2012-10-02T01:24:00Z,28.1930,-82.7890,1.0,24.267,1111122 
COMPS,ioos:station:USF.COMPS:ANC:1,2012-10-02T01:30:00Z,28.1930,-82.7890,1.0,24.257,1111122 
COMPS,ioos:station:USF.COMPS:ANC:1,2012-10-02T01:36:00Z,28.1930,-82.7890,1.0,24.26,1111122 
COMPS,ioos:station:USF.COMPS:ANC:1,2012-10-02T01:42:00Z,28.1930,-82.7890,1.0,24.264,1111122 
COMPS,ioos:station:USF.COMPS:ANC:1,2012-10-02T01:48:00Z,28.1930,-82.7890,1.0,24.274,1111122 
COMPS,ioos:station:USF.COMPS:ANC:1,2012-10-02T01:54:00Z,28.1930,-82.7890,1.0,24.291,1111122 
COMPS,ioos:station:USF.COMPS:ANC:1,2012-10-02T02:00:00Z,28.1930,-82.7890,1.0,24.365,1111122 
COMPS,ioos:station:USF.COMPS:ANC:1,2012-10-02T02:06:00Z,28.1930,-82.7890,1.0,24.456,1111122 
COMPS,ioos:station:USF.COMPS:ANC:1,2012-10-02T02:12:00Z,28.1930,-82.7890,1.0,24.661,1111122 
COMPS,ioos:station:USF.COMPS:ANC:1,2012-10-02T02:18:00Z,28.1930,-82.7890,1.0,24.918,1111122 
COMPS,ioos:station:USF.COMPS:ANC:1,2012-10-02T02:24:00Z,28.1930,-82.7890,1.0,25.188,1111122 
COMPS,ioos:station:USF.COMPS:ANC:1,2012-10-02T02:30:00Z,28.1930,-82.7890,1.0,25.443,1111122 
COMPS,ioos:station:USF.COMPS:ANC:1,2012-10-02T02:36:00Z,28.1930,-82.7890,1.0,25.701,1111122 